"Period start","avg(HW err(1)/warn(2) (#))","avg(Visibility (m))","avg(Weather code (#))","avg(Precip intensity (mm/h))","min(HW err(1)/warn(2) (#))","max(HW err(1)/warn(2) (#))","std(HW err(1)/warn(2) (#))","med(HW err(1)/warn(2) (#))","min(Visibility (m))","max(Visibility (m))","std(Visibility (m))","med(Visibility (m))","min(Weather code (#))","max(Weather code (#))","std(Weather code (#))","med(Weather code (#))","min(Precip intensity (mm/h))","max(Precip intensity (mm/h))","std(Precip intensity (mm/h))","med(Precip intensity (mm/h))"
2014-09-07 00:00:00,2,42022,50,0.16,2,2,0,2,30749,50000,7070,43293,41,61,8,51,0.05,0.35,0.09,0.15
2014-09-07 00:10:00,2,30942,51,0.14,2,2,0,2,24321,40988,5424,30572,41,61,8,51,0.00,0.40,0.12,0.10
2014-09-07 00:20:00,2,35381,53,0.07,2,2,0,2,20948,45925,8275,40235,41,61,9,56,0.00,0.20,0.06,0.08
2014-09-07 00:30:00,2,45766,29,0.00,2,2,0,2,41922,50000,3181,44885,0,41,19,41,0.00,0.00,0.00,0.00
2014-09-07 00:40:00,2,49520,0,0.00,2,2,0,2,48242,50000,715,50000,0,0,0,0,0.00,0.00,0.00,0.00
2014-09-07 00:50:00,2,48715,0,0.00,2,2,0,2,41535,50000,2727,50000,0,0,0,0,0.00,0.00,0.00,0.00
2014-09-07 01:00:00,2,49901,0,0.00,2,2,0,2,49006,50000,298,50000,0,0,0,0,0.00,0.00,0.00,0.00
2014-09-07 01:10:00,2,49267,0,0.00,2,2,0,2,44920,50000,1549,50000,0,0,0,0,0.00,0.00,0.00,0.00
2014-09-07 01:20:00,2,49784,0,0.00,2,2,0,2,48707,50000,428,50000,0,0,0,0,0.00,0.00,0.00,0.00
2014-09-07 01:30:00,2,49770,0,0.00,2,2,0,2,48647,50000,469,50000,0,0,0,0,0.00,0.00,0.00,0.00
2014-09-07 01:40:00,2,49020,0,0.00,2,2,0,2,46395,50000,1196,49560,0,0,0,0,0.00,0.00,0.00,0.00
2014-09-07 01:50:00,2,49649,0,0.00,2,2,0,2,46488,50000,1054,50000,0,0,0,0,0.00,0.00,0.00,0.00
2014-09-07 02:00:00,2,47859,0,0.00,2,2,0,2,38399,50000,3997,49854,0,0,0,0,0.00,0.00,0.00,0.00
2014-09-07 02:10:00,2,49246,0,0.00,2,2,0,2,46749,50000,1062,50000,0,0,0,0,0.00,0.00,0.00,0.00
2014-09-07 02:20:00,2,47923,0,0.00,2,2,0,2,40141,50000,2930,49236,0,0,0,0,0.00,0.00,0.00,0.00
2014-09-07 02:30:00,2,47854,0,0.00,2,2,0,2,41889,50000,2776,49850,0,0,0,0,0.00,0.00,0.00,0.00
2014-09-07 02:40:00,2,48646,0,0.00,2,2,0,2,44268,50000,1968,50000,0,0,0,0,0.00,0.00,0.00,0.00
2014-09-07 02:50:00,2,47512,0,0.00,2,2,0,2,37325,50000,3900,50000,0,0,0,0,0.00,0.00,0.00,0.00
2014-09-07 03:00:00,2,49608,0,0.00,2,2,0,2,46075,50000,1178,50000,0,0,0,0,0.00,0.00,0.00,0.00
2014-09-07 03:10:00,2,49796,0,0.00,2,2,0,2,47961,50000,612,50000,0,0,0,0,0.00,0.00,0.00,0.00
2014-09-07 03:20:00,2,49620,0,0.00,2,2,0,2,46748,50000,971,50000,0,0,0,0,0.00,0.00,0.00,0.00
2014-09-07 03:30:00,2,50000,0,0.00,2,2,0,2,50000,50000,0,50000,0,0,0,0,0.00,0.00,0.00,0.00
2014-09-07 03:40:00,2,49107,0,0.00,2,2,0,2,45722,50000,1502,49956,0,0,0,0,0.00,0.00,0.00,0.00
2014-09-07 03:50:00,2,50000,0,0.00,2,2,0,2,50000,50000,0,50000,0,0,0,0,0.00,0.00,0.00,0.00
2014-09-07 04:00:00,2,45788,0,0.00,2,2,0,2,35709,50000,4163,45985,0,0,0,0,0.00,0.00,0.00,0.00
2014-09-07 04:10:00,2,48890,0,0.00,2,2,0,2,43504,50000,2126,50000,0,0,0,0,0.00,0.00,0.00,0.00
2014-09-07 04:20:00,2,46396,0,0.00,2,2,0,2,36019,50000,4583,48394,0,0,0,0,0.00,0.00,0.00,0.00
2014-09-07 04:30:00,2,48673,0,0.00,2,2,0,2,44440,50000,2095,50000,0,0,0,0,0.00,0.00,0.00,0.00
2014-09-07 04:40:00,2,44177,0,0.00,2,2,0,2,34096,50000,5132,45108,0,0,0,0,0.00,0.00,0.00,0.00
2014-09-07 04:50:00,2,47988,0,0.00,2,2,0,2,38373,50000,3777,50000,0,0,0,0,0.00,0.00,0.00,0.00
2014-09-07 05:00:00,2,47283,0,0.00,2,2,0,2,38736,50000,3244,47680,0,0,0,0,0.00,0.00,0.00,0.00
2014-09-07 05:10:00,2,45666,0,0.00,2,2,0,2,33382,50000,5919,48369,0,0,0,0,0.00,0.00,0.00,0.00
2014-09-07 05:20:00,2,49278,0,0.00,2,2,0,2,46118,50000,1329,50000,0,0,0,0,0.00,0.00,0.00,0.00
2014-09-07 05:30:00,2,15075,12,1.54,2,2,0,2,5322,48690,12951,8615,0,40,18,0,0.00,10.35,3.28,0.00
2014-09-07 05:40:00,2,34976,28,0.64,2,2,0,2,7456,50000,16580,44129,0,61,29,20,0.00,5.35,1.59,0.00
2014-09-07 05:50:00,2,48742,0,0.00,2,2,0,2,44610,50000,1885,50000,0,0,0,0,0.00,0.00,0.00,0.00
2014-09-07 06:00:00,2,47274,0,0.00,2,2,0,2,40619,50000,3315,49136,0,0,0,0,0.00,0.00,0.00,0.00
2014-09-07 06:10:00,2,50000,0,0.00,2,2,0,2,50000,50000,0,50000,0,0,0,0,0.00,0.00,0.00,0.00
2014-09-07 06:20:00,2,48795,0,0.00,2,2,0,2,41879,50000,2499,50000,0,0,0,0,0.00,0.00,0.00,0.00
2014-09-07 06:30:00,2,50000,0,0.00,2,2,0,2,50000,50000,0,50000,0,0,0,0,0.00,0.00,0.00,0.00
2014-09-07 06:40:00,2,50000,0,0.00,2,2,0,2,50000,50000,0,50000,0,0,0,0,0.00,0.00,0.00,0.00
2014-09-07 06:50:00,2,50000,0,0.00,2,2,0,2,50000,50000,0,50000,0,0,0,0,0.00,0.00,0.00,0.00
2014-09-07 07:00:00,2,49998,0,0.00,2,2,0,2,49982,50000,5,50000,0,0,0,0,0.00,0.00,0.00,0.00
2014-09-07 07:10:00,2,50000,0,0.00,2,2,0,2,50000,50000,0,50000,0,0,0,0,0.00,0.00,0.00,0.00
2014-09-07 07:20:00,2,50000,0,0.00,2,2,0,2,50000,50000,0,50000,0,0,0,0,0.00,0.00,0.00,0.00
2014-09-07 07:30:00,2,50000,0,0.00,2,2,0,2,50000,50000,0,50000,0,0,0,0,0.00,0.00,0.00,0.00
2014-09-07 07:40:00,2,50000,0,0.00,2,2,0,2,50000,50000,0,50000,0,0,0,0,0.00,0.00,0.00,0.00
2014-09-07 07:50:00,2,48021,0,0.00,2,2,0,2,40730,50000,3044,49712,0,0,0,0,0.00,0.00,0.00,0.00
2014-09-07 08:00:00,2,49992,0,0.00,2,2,0,2,49917,50000,25,50000,0,0,0,0,0.00,0.00,0.00,0.00
2014-09-07 08:10:00,2,49138,0,0.00,2,2,0,2,45344,50000,1516,50000,0,0,0,0,0.00,0.00,0.00,0.00
2014-09-07 08:20:00,2,45986,0,0.00,2,2,0,2,39731,50000,3484,45504,0,0,0,0,0.00,0.00,0.00,0.00
2014-09-07 08:30:00,2,48678,0,0.00,2,2,0,2,44991,50000,1773,49960,0,0,0,0,0.00,0.00,0.00,0.00
2014-09-07 08:40:00,2,49152,0,0.00,2,2,0,2,45599,50000,1574,50000,0,0,0,0,0.00,0.00,0.00,0.00
2014-09-07 08:50:00,2,46287,0,0.00,2,2,0,2,39339,50000,4108,48207,0,0,0,0,0.00,0.00,0.00,0.00
2014-09-07 09:00:00,2,46560,0,0.00,2,2,0,2,40568,49899,2731,47104,0,0,0,0,0.00,0.00,0.00,0.00
2014-09-07 09:10:00,2,46202,0,0.00,2,2,0,2,40653,50000,3781,47800,0,0,0,0,0.00,0.00,0.00,0.00
2014-09-07 09:20:00,2,44154,0,0.00,2,2,0,2,38079,48345,3298,45064,0,0,0,0,0.00,0.00,0.00,0.00
2014-09-07 09:30:00,2,45868,0,0.00,2,2,0,2,38248,50000,3570,46678,0,0,0,0,0.00,0.00,0.00,0.00
2014-09-07 09:40:00,2,39354,0,0.00,2,2,0,2,33434,45563,4391,39042,0,0,0,0,0.00,0.00,0.00,0.00
2014-09-07 09:50:00,2,41262,0,0.00,2,2,0,2,36890,46268,3080,40038,0,0,0,0,0.00,0.00,0.00,0.00
2014-09-07 10:00:00,2,37120,0,0.00,2,2,0,2,30325,41794,3155,37450,0,0,0,0,0.00,0.00,0.00,0.00
2014-09-07 10:10:00,2,40361,0,0.00,2,2,0,2,35149,44470,3244,41069,0,0,0,0,0.00,0.00,0.00,0.00
2014-09-07 10:20:00,2,44395,0,0.00,2,2,0,2,41646,47255,2051,44478,0,0,0,0,0.00,0.00,0.00,0.00
2014-09-07 10:30:00,2,44415,0,0.00,2,2,0,2,36753,48980,4232,46006,0,0,0,0,0.00,0.00,0.00,0.00
2014-09-07 10:40:00,2,47154,0,0.00,2,2,0,2,38909,50000,3716,49566,0,0,0,0,0.00,0.00,0.00,0.00
2014-09-07 10:50:00,2,48064,0,0.00,2,2,0,2,44339,50000,2298,49589,0,0,0,0,0.00,0.00,0.00,0.00
2014-09-07 11:00:00,2,48005,0,0.00,2,2,0,2,43316,50000,2170,48651,0,0,0,0,0.00,0.00,0.00,0.00
2014-09-07 11:10:00,2,47093,0,0.00,2,2,0,2,44455,50000,1938,46714,0,0,0,0,0.00,0.00,0.00,0.00
2014-09-07 11:20:00,2,46891,0,0.00,2,2,0,2,37171,50000,4141,49099,0,0,0,0,0.00,0.00,0.00,0.00
2014-09-07 11:30:00,2,41772,0,0.00,2,2,0,2,36104,47884,4109,41198,0,0,0,0,0.00,0.00,0.00,0.00
2014-09-07 11:40:00,2,44976,0,0.00,2,2,0,2,40042,50000,3060,45250,0,0,0,0,0.00,0.00,0.00,0.00
2014-09-07 11:50:00,2,48224,0,0.00,2,2,0,2,43234,50000,2111,49054,0,0,0,0,0.00,0.00,0.00,0.00
2014-09-07 12:00:00,2,49478,0,0.00,2,2,0,2,47979,50000,650,49790,0,0,0,0,0.00,0.00,0.00,0.00
2014-09-07 12:10:00,2,48101,0,0.00,2,2,0,2,44964,50000,1743,48264,0,0,0,0,0.00,0.00,0.00,0.00
2014-09-07 12:20:00,2,46973,0,0.00,2,2,0,2,38921,50000,3065,47762,0,0,0,0,0.00,0.00,0.00,0.00
2014-09-07 12:30:00,2,45005,0,0.00,2,2,0,2,37656,50000,3718,45635,0,0,0,0,0.00,0.00,0.00,0.00
2014-09-07 12:40:00,2,48076,0,0.00,2,2,0,2,45503,50000,1461,48346,0,0,0,0,0.00,0.00,0.00,0.00
2014-09-07 12:50:00,2,48558,0,0.00,2,2,0,2,42773,50000,2023,49088,0,0,0,0,0.00,0.00,0.00,0.00
2014-09-07 13:00:00,2,47774,0,0.00,2,2,0,2,43533,50000,2179,47734,0,0,0,0,0.00,0.00,0.00,0.00
2014-09-07 13:10:00,2,46224,0,0.00,2,2,0,2,41645,50000,2853,46178,0,0,0,0,0.00,0.00,0.00,0.00
2014-09-07 13:20:00,2,47378,0,0.00,2,2,0,2,43524,50000,2118,47308,0,0,0,0,0.00,0.00,0.00,0.00
2014-09-07 13:30:00,2,47443,0,0.00,2,2,0,2,42873,50000,2769,48614,0,0,0,0,0.00,0.00,0.00,0.00
2014-09-07 13:40:00,2,48652,0,0.00,2,2,0,2,44714,50000,1681,49328,0,0,0,0,0.00,0.00,0.00,0.00
2014-09-07 13:50:00,2,45937,0,0.00,2,2,0,2,38394,50000,3607,47240,0,0,0,0,0.00,0.00,0.00,0.00
2014-09-07 14:00:00,2,48485,0,0.00,2,2,0,2,45857,50000,1503,48846,0,0,0,0,0.00,0.00,0.00,0.00
2014-09-07 14:10:00,2,44850,0,0.00,2,2,0,2,40691,49699,2713,44101,0,0,0,0,0.00,0.00,0.00,0.00
2014-09-07 14:20:00,2,42410,0,0.00,2,2,0,2,39006,47805,2941,41494,0,0,0,0,0.00,0.00,0.00,0.00
2014-09-07 14:30:00,2,42490,0,0.00,2,2,0,2,39013,45992,2102,42340,0,0,0,0,0.00,0.00,0.00,0.00
2014-09-07 14:40:00,2,47846,0,0.00,2,2,0,2,41962,50000,2461,48170,0,0,0,0,0.00,0.00,0.00,0.00
2014-09-07 14:50:00,2,46258,0,0.00,2,2,0,2,41927,49719,2239,46645,0,0,0,0,0.00,0.00,0.00,0.00
2014-09-07 15:00:00,0,49114,0,0.00,0,2,1,0,46582,50000,1229,50000,0,0,0,0,0.00,0.00,0.00,0.00
2014-09-07 15:10:00,0,48355,0,0.00,0,0,0,0,45842,50000,1439,48536,0,0,0,0,0.00,0.00,0.00,0.00
2014-09-07 15:20:00,2,47032,0,0.00,0,2,1,2,41998,50000,2427,47563,0,0,0,0,0.00,0.00,0.00,0.00
2014-09-07 15:30:00,2,45903,0,0.00,2,2,0,2,41368,50000,3254,45588,0,0,0,0,0.00,0.00,0.00,0.00
2014-09-07 15:40:00,2,44402,0,0.00,2,2,0,2,36352,48654,3922,45456,0,0,0,0,0.00,0.00,0.00,0.00
2014-09-07 15:50:00,2,44864,0,0.00,2,2,0,2,39865,50000,2951,45060,0,0,0,0,0.00,0.00,0.00,0.00
2014-09-07 16:00:00,2,41626,0,0.00,2,2,0,2,38732,46668,2363,41456,0,0,0,0,0.00,0.00,0.00,0.00
2014-09-07 16:10:00,2,46699,0,0.00,2,2,0,2,41140,49195,2257,47490,0,0,0,0,0.00,0.00,0.00,0.00
2014-09-07 16:20:00,2,42354,0,0.00,2,2,0,2,35793,48996,4085,41868,0,0,0,0,0.00,0.00,0.00,0.00
2014-09-07 16:30:00,2,43405,0,0.00,2,2,0,2,35388,50000,4688,43099,0,0,0,0,0.00,0.00,0.00,0.00
2014-09-07 16:40:00,2,46653,0,0.00,2,2,0,2,42269,50000,2256,46691,0,0,0,0,0.00,0.00,0.00,0.00
2014-09-07 16:50:00,2,46338,0,0.00,2,2,0,2,42411,49571,2238,46650,0,0,0,0,0.00,0.00,0.00,0.00
2014-09-07 17:00:00,2,45488,0,0.00,2,2,0,2,38774,49802,2947,45084,0,0,0,0,0.00,0.00,0.00,0.00
2014-09-07 17:10:00,2,47202,0,0.00,2,2,0,2,44765,50000,1766,47082,0,0,0,0,0.00,0.00,0.00,0.00
2014-09-07 17:20:00,2,46361,0,0.00,2,2,0,2,41621,50000,2786,46678,0,0,0,0,0.00,0.00,0.00,0.00
2014-09-07 17:30:00,2,44717,0,0.00,2,2,0,2,37716,50000,3671,44938,0,0,0,0,0.00,0.00,0.00,0.00
2014-09-07 17:40:00,2,44774,0,0.00,2,2,0,2,37460,50000,4268,45510,0,0,0,0,0.00,0.00,0.00,0.00
2014-09-07 17:50:00,2,42387,0,0.00,2,2,0,2,34183,50000,4139,43727,0,0,0,0,0.00,0.00,0.00,0.00
2014-09-07 18:00:00,2,39278,0,0.00,2,2,0,2,33329,47350,5097,37726,0,0,0,0,0.00,0.00,0.00,0.00
2014-09-07 18:10:00,2,34729,0,0.00,2,2,0,2,31464,39561,2588,34222,0,0,0,0,0.00,0.00,0.00,0.00
2014-09-07 18:20:00,2,38179,0,0.00,2,2,0,2,32884,40940,2407,39029,0,0,0,0,0.00,0.00,0.00,0.00
2014-09-07 18:30:00,2,38728,0,0.00,2,2,0,2,32231,42934,3234,39400,0,0,0,0,0.00,0.00,0.00,0.00
2014-09-07 18:40:00,2,35561,0,0.00,2,2,0,2,30408,39694,2698,35714,0,0,0,0,0.00,0.00,0.00,0.00
2014-09-07 18:50:00,2,35235,0,0.00,2,2,0,2,28311,42776,4642,34825,0,0,0,0,0.00,0.00,0.00,0.00
2014-09-07 19:00:00,1,31824,22,0.04,0,2,1,0,27362,41294,3823,30810,0,51,23,20,0.00,0.20,0.07,0.00
2014-09-07 19:10:00,2,36618,48,0.11,0,2,1,2,29555,44264,4829,35241,41,51,5,51,0.00,0.30,0.11,0.12
2014-09-07 19:20:00,2,32221,12,0.01,2,2,0,2,29477,35985,2197,31656,0,61,24,0,0.00,0.15,0.05,0.00
2014-09-07 19:30:00,2,41007,53,0.05,2,2,0,2,33205,48356,4692,40468,51,61,4,51,0.00,0.20,0.07,0.03
2014-09-07 19:40:00,2,33452,44,0.04,2,2,0,2,27912,43160,4818,31957,41,51,5,41,0.00,0.20,0.06,0.05
2014-09-07 19:50:00,2,24399,41,0.02,2,2,0,2,20651,28095,2000,23996,41,41,0,41,0.00,0.05,0.02,0.00
2014-09-07 20:00:00,2,19818,59,3.14,2,2,0,2,16631,25445,2501,19479,41,62,6,61,0.15,10.80,3.03,2.55
2014-09-07 20:10:00,2,19894,61,1.69,2,2,0,2,17305,24199,2264,19573,61,61,0,61,0.95,3.40,0.70,1.50
2014-09-07 20:20:00,2,17048,61,2.04,2,2,0,2,14705,18858,1177,17459,61,61,0,61,0.35,4.20,1.02,2.08
2014-09-07 20:30:00,2,15054,61,3.24,2,2,0,2,11688,21349,2593,14634,61,61,0,61,1.10,7.05,1.80,2.83
2014-09-07 20:40:00,2,20289,61,0.97,2,2,0,2,16926,24479,2132,20262,61,61,0,61,0.30,2.20,0.53,0.92
2014-09-07 20:50:00,2,22922,52,0.30,2,2,0,2,20865,26080,1479,22607,51,61,3,51,0.00,0.70,0.18,0.30
2014-09-07 21:00:00,2,28152,22,0.01,2,2,0,2,22599,33278,2886,28017,0,51,23,20,0.00,0.05,0.02,0.00
2014-09-07 21:10:00,2,28611,0,0.00,2,2,0,2,24156,36489,4178,27884,0,0,0,0,0.00,0.00,0.00,0.00
2014-09-07 21:20:00,2,28155,0,0.00,2,2,0,2,24353,31700,2314,28312,0,0,0,0,0.00,0.00,0.00,0.00
2014-09-07 21:30:00,2,22923,0,0.00,2,2,0,2,18969,27092,2513,22987,0,0,0,0,0.00,0.00,0.00,0.00
2014-09-07 21:40:00,2,23584,48,0.23,2,2,0,2,19469,27337,2805,23994,40,52,5,51,0.05,0.55,0.18,0.20
2014-09-07 21:50:00,2,26767,59,0.06,2,2,0,2,23163,33522,3279,26224,41,71,15,71,0.00,0.15,0.05,0.05
2014-09-07 22:00:00,2,27934,71,0.02,2,2,0,2,24475,34409,2883,27198,71,71,0,71,0.00,0.05,0.02,0.00
2014-09-07 22:10:00,2,29602,71,0.00,2,2,0,2,25821,33284,2297,29807,71,71,0,71,0.00,0.00,0.00,0.00
2014-09-07 22:20:00,2,31363,68,0.01,2,2,0,2,24072,40011,4949,30736,41,71,9,71,0.00,0.05,0.02,0.00
2014-09-07 22:30:00,2,31103,41,0.02,2,2,0,2,24220,37803,3926,31308,41,41,0,41,0.00,0.10,0.03,0.00
2014-09-07 22:40:00,2,35611,33,0.00,2,2,0,2,27464,40301,3791,37000,0,41,16,41,0.00,0.00,0.00,0.00
2014-09-07 22:50:00,2,42664,0,0.00,2,2,0,2,36411,49609,4296,43292,0,0,0,0,0.00,0.00,0.00,0.00
2014-09-07 23:00:00,2,40760,0,0.00,2,2,0,2,33194,48774,4815,40016,0,0,0,0,0.00,0.00,0.00,0.00
2014-09-07 23:10:00,2,41681,0,0.00,2,2,0,2,32871,50000,5726,40167,0,0,0,0,0.00,0.00,0.00,0.00
2014-09-07 23:20:00,2,44276,0,0.00,2,2,0,2,38751,50000,3902,42743,0,0,0,0,0.00,0.00,0.00,0.00
2014-09-07 23:30:00,2,45103,0,0.00,2,2,0,2,40910,48525,2802,45466,0,0,0,0,0.00,0.00,0.00,0.00
2014-09-07 23:40:00,2,42837,0,0.00,2,2,0,2,36299,46515,3560,43862,0,0,0,0,0.00,0.00,0.00,0.00
2014-09-07 23:50:00,2,26102,0,0.00,2,2,0,2,19508,38228,6023,24434,0,0,0,0,0.00,0.00,0.00,0.00
